カタログに戻る

BEIDOU 4

運用中ナビゲーションGEO
NORAD 36590·PAYLOAD·🇨🇳 China

打ち上げ Jun 2, 2010 から Xichang Satellite Launch Center

Loading…

TLE

最新Source: Space-Track

元期: Sep 14, 2026, 14:10 UTC

1 36590U 10024A   26257.59087441 -.00000142  00000-0  00000-0 0  9998
2 36590   4.7239  61.0417 0005030   0.0749 224.7744  1.00273419 59660

AllMySatでBEIDOU 4をリアルタイム追跡

Download on the App Store